Inquirer Daily News

Weather

Get conditions and forecasts for any City, State, ZIP code or Country:  
Trenton, NJ
on Friday, November 9, 2012

Friday
Previous Day Next Day
Daily Summary
 ActualAverageRecord
Temperature
Mean Temperature °F 48°F  
Max Temperature 54°F 57°F 78°F (1975)
Min Temperature 34°F 39°F 22°F (1992)
Degree Days
Heating Degree Days 21 17  
Month to date heating degree days 212 145  
Since 1 July heating degree days 520 542  
Cooling Degree Days 0 0  
Month to date cooling degree days 0 0  
Year to date cooling degree days 1234 965  
Moisture
Dew Point 26°F   
Average Humidity 54    
Maximum Humidity 76    
Minimum Humidity 32    
Precipitation
Precipitation 0.00 in 0.12 in 1.15 in (1926)
Month to date precipitation 0.36 0.97  
Year to date precipitation 32.41 40.40  
Wind
Wind Speed 7 mph   
Max Wind Speed 18 mph   
Max Gust Speed 25 mph   
Visibility 10 miles   
Events     

Key: T is trace of precipitation, MM is missing value
Source: NWS Daily Summary
Time(EST)TemperatureDew PointHumidity Pressure Visibility Wind DirectionWind SpeedGust SpeedPrecipitationEvents Conditions
12:53 AM 37.0°F 24.1°F 59% 29.96 in 10.0 miles North 6.9 mph - N/A   Clear
1:53 AM 36.0°F 24.1°F 62% 29.97 in 10.0 miles NNW 8.1 mph - N/A   Clear
2:53 AM 34.0°F 24.1°F 67% 29.98 in 10.0 miles NNW 5.8 mph - N/A   Clear
3:53 AM 35.1°F 24.1°F 64% 30.00 in 10.0 miles NNW 5.8 mph - N/A   Clear
4:53 AM 35.1°F 24.1°F 64% 30.02 in 10.0 miles NNW 6.9 mph - N/A   Clear
5:53 AM 36.0°F 23.0°F 59% 30.02 in 10.0 miles NNW 10.4 mph - N/A   Clear
6:53 AM 35.1°F 23.0°F 61% 30.06 in 10.0 miles NW 6.9 mph - N/A   Clear
7:53 AM 37.9°F 24.1°F 57% 30.08 in 10.0 miles NNW 5.8 mph - N/A   Clear
8:53 AM 42.1°F 25.0°F 51% 30.08 in 10.0 miles North 12.7 mph 19.6 mph N/A   Clear
9:53 AM 45.0°F 25.0°F 46% 30.10 in 10.0 miles NNW 17.3 mph 23.0 mph N/A   Clear
10:53 AM 48.0°F 25.0°F 41% 30.10 in 10.0 miles NNW 10.4 mph 19.6 mph N/A   Clear
11:53 AM 50.0°F 25.0°F 38% 30.09 in 10.0 miles NNW 9.2 mph - N/A   Clear
12:53 PM 53.1°F 24.1°F 32% 30.08 in 10.0 miles NNW 11.5 mph 21.9 mph N/A   Clear
1:53 PM 53.1°F 25.0°F 34% 30.07 in 10.0 miles NNW 12.7 mph 19.6 mph N/A   Clear
2:53 PM 54.0°F 28.0°F 37% 30.07 in 10.0 miles NNW 11.5 mph - N/A   Clear
3:53 PM 54.0°F 27.0°F 35% 30.09 in 10.0 miles NNW 6.9 mph - N/A   Clear
4:53 PM 51.1°F 28.0°F 41% 30.10 in 10.0 miles NNW 3.5 mph - N/A   Clear
5:53 PM 48.9°F 28.9°F 46% 30.13 in 10.0 miles North 4.6 mph - N/A   Clear
6:53 PM 45.0°F 30.0°F 56% 30.16 in 10.0 miles Calm Calm - N/A   Clear
7:53 PM 42.1°F 30.0°F 62% 30.18 in 10.0 miles Calm Calm - N/A   Clear
8:53 PM 42.1°F 30.0°F 62% 30.19 in 10.0 miles Calm Calm - N/A   Clear
9:53 PM 37.0°F 30.0°F 76% 30.19 in 10.0 miles NNW 4.6 mph - N/A   Clear
10:53 PM 37.0°F 30.0°F 76% 30.20 in 10.0 miles NNW 4.6 mph - N/A   Clear
11:53 PM 37.0°F 30.0°F 76% 30.21 in 10.0 miles Calm Calm - N/A   Clear
Astronomy
Sunrise:06:38 AM (EST) Moon Rise:01:34 AM (EST)11/9
Sunset:04:47 PM (EST) Moon Set:01:59 PM (EST)11/9
Moon Phase
Nov. 09 Nov. 13 Nov. 20 Nov. 28 Dec. 06

Copyright © 2014 The Weather Underground, Inc.